Weather History for Wadena, MN

Change the Weather History Date:

Monday, November 26, 2012

  Actual Average Record
Temperature  
Mean Temperature 6 °F -  
Max Temperature 15 °F 30 °F 50 °F (1941)
Min Temperature -2 °F 14 °F -15 °F (1977)
Degree Days  
Heating Degree Days 58    
Moisture  
Dew Point 1 °F    
Average Humidity 77    
Maximum Humidity 92    
Minimum Humidity 67    
Precipitation  
Precipitation 0.00 in - - ()
Sea Level Pressure  
Sea Level Pressure 30.29 in    
Wind  
Wind Speed 6 mph (West)    
Max Wind Speed 12 mph    
Max Gust Speed 18 mph    
Visibility 10 miles    
Events      
Averages and records for this station are not official NWS values.
T = Trace of Precipitation, MM = Missing Value Source: NWS Daily Summary

Daily Weather History Graph

Daily Weather History Graph

Search for Another Location

Airport:

Trip Planner

Search our weather history database for the weather conditions in past years. The results will help you decide how hot, cold, wet, or windy it might be!

Date:

Astronomy

Nov. 26, 2012 Rise Set
Actual Time 7:38 AM CST 4:38 PM CST
Civil Twilight 7:04 AM CST 5:11 PM CST
Nautical Twilight 6:27 AM CST 5:49 PM CST
Astronomical Twilight 5:50 AM CST 6:25 PM CST
Moon 3:33 PM CST (11/26) 5:45 AM CST (11/26)
Length of Visible Light 10h 07m
Length of Day
8h 59m
Waxing Gibbous, 97% of the Moon is Illuminated
Nov 26
Waxing Gibbous
Nov 28
Full
Dec 6
Last Quarter
Dec 13
New
Dec 19
First Quarter

Hourly Weather History & Observations

Time (CST) Temp. Windchill Dew Point Humidity Pressure Visibility Wind Dir Wind Speed Gust Speed Precip Events Conditions
12:14 AM 1.4 °F -8.3 °F -2.2 °F 85% 30.21 in 10.0 mi WNW 4.6 mph - N/A   Clear
12:35 AM 1.4 °F -11.3 °F -2.2 °F 85% 30.21 in 10.0 mi WNW 6.9 mph - N/A   Clear
12:53 AM 1.4 °F -9.9 °F -2.2 °F 85% 30.22 in 10.0 mi WNW 5.8 mph - N/A   Clear
1:14 AM 1.4 °F -11.3 °F -2.2 °F 85% 30.22 in 10.0 mi WNW 6.9 mph - N/A   Clear
1:35 AM -0.4 °F -13.4 °F -2.2 °F 92% 30.23 in 10.0 mi WNW 6.9 mph - N/A   Clear
1:53 AM -0.4 °F -12.0 °F -4.0 °F 85% 30.23 in 10.0 mi WNW 5.8 mph - N/A   Clear
2:14 AM -0.4 °F -13.4 °F -4.0 °F 85% 30.23 in 10.0 mi NW 6.9 mph - N/A   Clear
2:35 AM -0.4 °F -13.4 °F -4.0 °F 85% 30.24 in 10.0 mi NW 6.9 mph - N/A   Clear
2:53 AM -0.4 °F -12.0 °F -4.0 °F 85% 30.25 in 10.0 mi WNW 5.8 mph - N/A   Clear
3:14 AM -0.4 °F -12.0 °F -5.8 °F 78% 30.26 in 10.0 mi WNW 5.8 mph - N/A   Clear
3:35 AM -0.4 °F -10.4 °F -4.0 °F 85% 30.26 in 10.0 mi WNW 4.6 mph - N/A   Clear
3:53 AM -0.4 °F -12.0 °F -4.0 °F 85% 30.27 in 10.0 mi West 5.8 mph - N/A   Clear
4:14 AM -0.4 °F -13.4 °F -5.8 °F 78% 30.27 in 10.0 mi WNW 6.9 mph - N/A   Clear
4:35 AM -2.2 °F -15.6 °F -5.8 °F 85% 30.27 in 10.0 mi NW 6.9 mph - N/A   Clear
4:53 AM -0.4 °F -12.0 °F -5.8 °F 78% 30.28 in 10.0 mi WNW 5.8 mph - N/A   Clear
5:14 AM -2.2 °F -12.5 °F -5.8 °F 85% 30.29 in 10.0 mi West 4.6 mph - N/A   Clear
5:35 AM -2.2 °F -12.5 °F -5.8 °F 85% 30.30 in 10.0 mi West 4.6 mph - N/A   Clear
5:53 AM -2.2 °F -14.2 °F -7.6 °F 78% 30.31 in 10.0 mi West 5.8 mph - N/A   Clear
6:15 AM -2.2 °F -14.2 °F -7.6 °F 78% 30.31 in 10.0 mi West 5.8 mph - N/A   Clear
6:34 AM -2.2 °F -12.5 °F -7.6 °F 78% 30.32 in 10.0 mi West 4.6 mph - N/A   Clear
6:53 AM -2.2 °F -12.5 °F -5.8 °F 85% 30.32 in 10.0 mi West 4.6 mph - N/A   Clear
7:15 AM -2.2 °F -12.5 °F -5.8 °F 85% 30.33 in 10.0 mi West 4.6 mph - N/A   Clear
7:34 AM -2.2 °F -14.2 °F -5.8 °F 85% 30.34 in 10.0 mi WNW 5.8 mph - N/A   Clear
7:53 AM -2.2 °F -12.5 °F -5.8 °F 85% 30.35 in 10.0 mi West 4.6 mph - N/A   Clear
8:15 AM -2.2 °F -10.4 °F -5.8 °F 85% 30.35 in 10.0 mi West 3.5 mph - N/A   Clear
8:34 AM -0.4 °F -8.3 °F -5.8 °F 78% 30.36 in 10.0 mi West 3.5 mph - N/A   Clear
8:53 AM -0.4 °F -12.0 °F -4.0 °F 85% 30.36 in 10.0 mi WNW 5.8 mph - N/A   Clear
9:15 AM 1.4 °F -14.5 °F -2.2 °F 85% 30.36 in 10.0 mi NW 10.4 mph - N/A   Clear
9:35 AM 3.2 °F -7.8 °F -2.2 °F 78% 30.37 in 10.0 mi WNW 5.8 mph 9.2 mph N/A   Clear
9:52 AM 3.2 °F -9.1 °F -0.4 °F 85% 30.37 in 10.0 mi WNW 6.9 mph - N/A   Clear
10:15 AM 5.0 °F -5.6 °F -0.4 °F 78% 30.37 in 10.0 mi WNW 5.8 mph - N/A   Clear
10:35 AM 6.8 °F -4.8 °F 1.4 °F 79% 30.37 in 10.0 mi West 6.9 mph - N/A   Clear
10:52 AM 6.8 °F -4.8 °F 1.4 °F 79% 30.38 in 10.0 mi WNW 6.9 mph - N/A   Clear
11:15 AM 8.6 °F -3.7 °F 1.4 °F 73% 30.37 in 10.0 mi West 8.1 mph - N/A   Clear
11:35 AM 8.6 °F -3.7 °F 1.4 °F 73% 30.37 in 10.0 mi West 8.1 mph - N/A   Clear
11:52 AM 8.6 °F -5.5 °F 1.4 °F 73% 30.37 in 10.0 mi West 10.4 mph - N/A   Clear
12:15 PM 10.4 °F -0.4 °F 1.4 °F 67% 30.36 in 10.0 mi WNW 6.9 mph - N/A   Clear
12:35 PM 10.4 °F -0.4 °F 3.2 °F 73% 30.35 in 10.0 mi WSW 6.9 mph - N/A   Clear
12:52 PM 10.4 °F -0.4 °F 3.2 °F 73% 30.34 in 10.0 mi West 6.9 mph - N/A   Clear
1:15 PM 12.2 °F 2.9 °F 3.2 °F 67% 30.34 in 10.0 mi West 5.8 mph - N/A   Clear
1:35 PM 12.2 °F 2.9 °F 5.0 °F 73% 30.34 in 10.0 mi WSW 5.8 mph - N/A   Clear
1:52 PM 12.2 °F -0.2 °F 5.0 °F 73% 30.34 in 10.0 mi West 9.2 mph - N/A   Clear
2:15 PM 12.2 °F -0.2 °F 3.2 °F 67% 30.33 in 10.0 mi West 9.2 mph - N/A   Clear
2:35 PM 12.2 °F 0.7 °F 3.2 °F 67% 30.33 in 10.0 mi West 8.1 mph - N/A   Clear
2:53 PM 12.2 °F 2.9 °F 3.2 °F 67% 30.32 in 10.0 mi West 5.8 mph - N/A   Clear
3:15 PM 12.2 °F -0.2 °F 3.2 °F 67% 30.32 in 10.0 mi West 9.2 mph - N/A   Clear
3:35 PM 12.2 °F 1.7 °F 3.2 °F 67% 30.32 in 10.0 mi West 6.9 mph - N/A   Clear
3:53 PM 12.2 °F 0.7 °F 3.2 °F 67% 30.32 in 10.0 mi WSW 8.1 mph - N/A   Clear
4:14 PM 12.2 °F 2.9 °F 3.2 °F 67% 30.31 in 10.0 mi SW 5.8 mph - N/A   Clear
4:35 PM 10.4 °F 2.2 °F 3.2 °F 73% 30.30 in 10.0 mi SW 4.6 mph - N/A   Clear
4:53 PM 10.4 °F 4.0 °F 3.2 °F 73% 30.30 in 10.0 mi SSW 3.5 mph - N/A   Scattered Clouds
5:14 PM 10.4 °F 4.0 °F 3.2 °F 73% 30.30 in 10.0 mi SSW 3.5 mph - N/A   Scattered Clouds
5:35 PM 10.4 °F 4.0 °F 5.0 °F 79% 30.30 in 10.0 mi SSW 3.5 mph - N/A   Scattered Clouds
5:53 PM 10.4 °F 2.2 °F 5.0 °F 79% 30.29 in 10.0 mi SSW 4.6 mph - N/A   Scattered Clouds
6:14 PM 10.4 °F 2.2 °F 5.0 °F 79% 30.29 in 10.0 mi SW 4.6 mph - N/A   Mostly Cloudy
6:35 PM 12.2 °F 2.9 °F 5.0 °F 73% 30.27 in 10.0 mi SSW 5.8 mph - N/A   Overcast
6:53 PM 10.4 °F -0.4 °F 5.0 °F 79% 30.26 in 10.0 mi SSW 6.9 mph - N/A   Mostly Cloudy
7:14 PM 10.4 °F 0.8 °F 3.2 °F 73% 30.26 in 10.0 mi SW 5.8 mph - N/A   Scattered Clouds
7:35 PM 12.2 °F 1.7 °F 6.8 °F 79% 30.25 in 10.0 mi SW 6.9 mph - N/A   Mostly Cloudy
7:53 PM 12.2 °F 2.9 °F 6.8 °F 79% 30.23 in 10.0 mi SSW 5.8 mph - N/A   Overcast
8:14 PM 12.2 °F 4.3 °F 5.0 °F 73% 30.23 in 10.0 mi SSW 4.6 mph - N/A   Mostly Cloudy
8:35 PM 14.0 °F 6.5 °F 6.8 °F 73% 30.23 in 10.0 mi WSW 4.6 mph - N/A   Mostly Cloudy
8:53 PM 15.8 °F 4.2 °F 6.8 °F 68% 30.23 in 10.0 mi WSW 9.2 mph - N/A   Overcast
9:14 PM 15.8 °F 3.4 °F 6.8 °F 68% 30.22 in 10.0 mi WSW 10.4 mph 16.1 mph N/A   Mostly Cloudy
9:34 PM 15.8 °F 2.7 °F 6.8 °F 68% 30.22 in 10.0 mi SW 11.5 mph - N/A   Scattered Clouds
9:53 PM 15.8 °F 2.7 °F 6.8 °F 68% 30.21 in 10.0 mi SW 11.5 mph - N/A   Scattered Clouds
10:15 PM 15.8 °F 3.4 °F 6.8 °F 68% 30.21 in 10.0 mi SW 10.4 mph 18.4 mph N/A   Overcast
10:34 PM 15.8 °F 3.4 °F 8.6 °F 73% 30.21 in 10.0 mi WSW 10.4 mph - N/A   Overcast
10:53 PM 15.8 °F 2.7 °F 8.6 °F 73% 30.20 in 10.0 mi SW 11.5 mph - N/A   Mostly Cloudy
11:15 PM 15.8 °F 4.2 °F 6.8 °F 68% 30.20 in 10.0 mi SW 9.2 mph - N/A   Scattered Clouds
11:34 PM 15.8 °F 4.2 °F 6.8 °F 68% 30.20 in 10.0 mi SW 9.2 mph - N/A   Clear
11:53 PM 14.0 °F 2.9 °F 6.8 °F 73% 30.20 in 10.0 mi SW 8.1 mph - N/A   Clear